timestamp,surface_pressure_avg,surface_temp_avg,battery_voltage,lat,long
2024-03-26 00:09:00+00:00,359.608,1.0,11.86,47.84626,-54.09684
2024-03-26 00:19:00+00:00,368.0612,1.0,11.86,47.84626,-54.09684
2024-03-26 00:29:00+00:00,363.7913,1.0,11.86,47.84626,-54.09684
2024-03-26 00:39:00+00:00,359.983,1.0,11.86,47.84626,-54.09684
2024-03-26 00:49:00+00:00,363.3596,1.01,11.86,47.84626,-54.09684
2024-03-26 00:59:00+00:00,360.9913,1.0,11.86,47.84626,-54.09684
2024-03-26 01:09:00+00:00,345.6829,1.01,11.86,47.84626,-54.09684
2024-03-26 01:19:00+00:00,338.6479,1.03,11.77,47.84626,-54.09684
2024-03-26 01:29:00+00:00,338.4696,1.03,11.77,47.84626,-54.09684
2024-03-26 01:39:00+00:00,331.6763,1.02,11.77,47.84626,-54.09684
2024-03-26 01:49:00+00:00,318.158,1.03,11.77,47.84626,-54.09684
2024-03-26 01:59:00+00:00,315.9498,1.04,11.77,47.84626,-54.09684
2024-03-26 02:09:00+00:00,317.0347,1.03,11.77,47.84626,-54.09684
2024-03-26 02:19:00+00:00,313.2947,1.03,11.77,47.84626,-54.09684
2024-03-26 02:29:00+00:00,304.9513,1.08,11.77,47.84626,-54.09684
2024-03-26 02:39:00+00:00,300.0247,1.05,11.77,47.84626,-54.09684
2024-03-26 02:49:00+00:00,294.1847,1.05,11.77,47.84626,-54.09684
2024-03-26 02:59:00+00:00,287.9147,1.03,11.77,47.84626,-54.09684
2024-03-26 03:09:00+00:00,279.6314,1.0,11.77,47.84626,-54.09684
2024-03-26 03:19:00+00:00,270.2281,1.0,11.77,47.84626,-54.09684
2024-03-26 03:29:00+00:00,263.5498,1.0,11.77,47.84626,-54.09684
2024-03-26 03:39:00+00:00,259.1631,1.0,11.77,47.84626,-54.09684
2024-03-26 03:49:00+00:00,251.243,1.01,11.77,47.84626,-54.09684
2024-03-26 03:59:00+00:00,244.4597,1.04,11.77,47.84626,-54.09684
2024-03-26 04:09:00+00:00,237.3515,1.05,11.77,47.84626,-54.09684
2024-03-26 04:19:00+00:00,229.0981,1.07,11.77,47.84626,-54.09684
2024-03-26 04:29:00+00:00,222.9031,1.08,11.77,47.84626,-54.09684
2024-03-26 04:39:00+00:00,214.9981,1.08,11.77,47.84626,-54.09684
2024-03-26 04:49:00+00:00,206.5664,1.09,11.77,47.84626,-54.09684
2024-03-26 04:59:00+00:00,200.4298,1.1,11.77,47.84626,-54.09684
2024-03-26 05:09:00+00:00,188.5481,1.1,11.77,47.84626,-54.09684
2024-03-26 05:19:00+00:00,178.6998,1.1,11.77,47.84626,-54.09684
2024-03-26 05:29:00+00:00,175.5748,1.16,11.77,47.84626,-54.09684
2024-03-26 05:39:00+00:00,173.2265,1.17,11.77,47.84626,-54.09684
2024-03-26 05:49:00+00:00,168.0081,1.17,11.77,47.84626,-54.09684
2024-03-26 05:59:00+00:00,162.7898,1.17,11.77,47.84626,-54.09684
2024-03-26 06:09:00+00:00,163.8165,1.16,11.77,47.84626,-54.09684
2024-03-26 06:19:00+00:00,164.8865,1.1,11.77,47.84626,-54.09684
2024-03-26 06:29:00+00:00,164.6748,1.1,11.77,47.84626,-54.09684
2024-03-26 06:39:00+00:00,165.5931,1.1,11.77,47.84626,-54.09684
2024-03-26 06:49:00+00:00,169.6465,1.1,11.77,47.84626,-54.09684
2024-03-26 06:59:00+00:00,170.9415,1.1,11.77,47.84626,-54.09684
2024-03-26 07:09:00+00:00,166.9082,1.17,11.77,47.84626,-54.09684
2024-03-26 07:19:00+00:00,171.8148,1.19,11.77,47.84626,-54.09684
2024-03-26 07:29:00+00:00,180.2715,1.2,11.77,47.84626,-54.09684
2024-03-26 07:39:00+00:00,179.4832,1.2,11.77,47.84626,-54.09684
2024-03-26 07:49:00+00:00,183.0214,1.2,11.77,47.84626,-54.09684
2024-03-26 07:59:00+00:00,193.9431,1.2,11.77,47.84626,-54.09684
2024-03-26 08:09:00+00:00,197.9648,1.2,11.77,47.84626,-54.09684
2024-03-26 08:19:00+00:00,197.1264,1.2,11.77,47.84626,-54.09684
2024-03-26 08:29:00+00:00,205.7114,1.2,11.77,47.84626,-54.09684
2024-03-26 08:39:00+00:00,214.7031,1.19,11.77,47.84626,-54.09684
2024-03-26 08:49:00+00:00,210.7364,1.2,11.77,47.84626,-54.09684
2024-03-26 08:59:00+00:00,212.4998,1.2,11.77,47.84626,-54.09684
2024-03-26 09:09:00+00:00,227.7031,1.19,11.77,47.84626,-54.09684
2024-03-26 09:19:00+00:00,233.0781,1.12,11.77,47.84626,-54.09684
2024-03-26 09:29:00+00:00,233.1481,1.1,11.77,47.84626,-54.09684
2024-03-26 09:39:00+00:00,237.0064,1.1,11.77,47.84626,-54.09684
2024-03-26 09:49:00+00:00,245.5514,1.1,11.77,47.84626,-54.09684
2024-03-26 09:59:00+00:00,249.9214,1.1,11.77,47.84626,-54.09684
2024-03-26 10:09:00+00:00,252.958,1.1,11.77,47.84626,-54.09684
2024-03-26 10:19:00+00:00,263.5147,1.1,11.77,47.84626,-54.09684
2024-03-26 10:29:00+00:00,270.9047,1.09,11.77,47.84626,-54.09684
2024-03-26 10:39:00+00:00,268.6797,1.09,11.77,47.84626,-54.09684
2024-03-26 10:49:00+00:00,269.5114,1.09,11.77,47.84626,-54.09684
2024-03-26 10:59:00+00:00,281.2081,1.06,11.77,47.84626,-54.09684
2024-03-26 11:09:00+00:00,287.0746,1.06,11.77,47.84626,-54.09684
2024-03-26 11:19:00+00:00,288.013,1.07,12.09,47.84626,-54.09684
2024-03-26 11:29:00+00:00,296.948,1.02,12.09,47.84626,-54.09684
2024-03-26 11:39:00+00:00,304.4947,1.0,12.09,47.84626,-54.09684
2024-03-26 11:49:00+00:00,306.6714,1.0,12.09,47.84626,-54.09684
2024-03-26 11:59:00+00:00,307.5096,1.0,12.09,47.84626,-54.09684
2024-03-26 12:09:00+00:00,313.8297,1.0,12.09,47.84626,-54.09684
2024-03-26 12:19:00+00:00,319.2546,1.0,12.41,47.84626,-54.09684
2024-03-26 12:29:00+00:00,320.6447,1.0,12.41,47.84626,-54.09684
2024-03-26 12:39:00+00:00,320.7613,1.02,12.41,47.84626,-54.09684
2024-03-26 12:49:00+00:00,319.2947,1.05,12.41,47.84626,-54.09684
2024-03-26 12:59:00+00:00,323.7264,1.07,12.41,47.84626,-54.09684
2024-03-26 13:09:00+00:00,322.8247,1.07,12.41,47.84626,-54.09684
2024-03-26 13:19:00+00:00,318.8414,1.07,12.49,47.84626,-54.09684
2024-03-26 13:29:00+00:00,318.7062,1.06,12.49,47.84626,-54.09684
2024-03-26 13:39:00+00:00,316.758,1.07,12.49,47.84626,-54.09684
2024-03-26 13:49:00+00:00,308.103,1.08,12.49,47.84626,-54.09684
2024-03-26 13:59:00+00:00,303.6163,1.07,12.49,47.84626,-54.09684
2024-03-26 14:09:00+00:00,304.428,1.06,12.49,47.84626,-54.09684
2024-03-26 14:19:00+00:00,302.4447,1.07,12.41,47.84626,-54.09684
2024-03-26 14:29:00+00:00,293.6897,1.07,12.41,47.84626,-54.09684
2024-03-26 14:39:00+00:00,287.0814,1.1,12.41,47.84626,-54.09684
2024-03-26 14:49:00+00:00,282.3231,1.1,12.41,47.84626,-54.09684
2024-03-26 14:59:00+00:00,278.0948,1.1,12.41,47.84626,-54.09684
2024-03-26 15:09:00+00:00,270.1931,1.1,12.41,47.84626,-54.09684
2024-03-26 15:19:00+00:00,264.4597,1.1,12.49,47.84626,-54.09684
2024-03-26 15:29:00+00:00,258.1481,1.1,12.49,47.84626,-54.09684
2024-03-26 15:39:00+00:00,248.2347,1.1,12.49,47.84626,-54.09684
2024-03-26 15:49:00+00:00,241.893,1.1,12.49,47.84626,-54.09684
2024-03-26 15:59:00+00:00,237.8064,1.1,12.49,47.84626,-54.09684
2024-03-26 16:09:00+00:00,230.7664,1.1,12.49,47.84626,-54.09684
2024-03-26 16:19:00+00:00,220.4414,1.1,12.41,47.84626,-54.09684
2024-03-26 16:29:00+00:00,214.1081,1.1,12.41,47.84626,-54.09684
2024-03-26 16:39:00+00:00,210.9215,1.1,12.41,47.84626,-54.09684
2024-03-26 16:49:00+00:00,203.6331,1.1,12.41,47.84626,-54.09684
2024-03-26 16:59:00+00:00,191.7848,1.1,12.41,47.84626,-54.09684
2024-03-26 17:09:00+00:00,184.0065,1.14,12.41,47.84626,-54.09684
2024-03-26 17:19:00+00:00,180.3682,1.16,12.33,47.84626,-54.09684
2024-03-26 17:29:00+00:00,176.2082,1.15,12.33,47.84626,-54.09684
2024-03-26 17:39:00+00:00,169.2998,1.15,12.33,47.84626,-54.09684
2024-03-26 17:49:00+00:00,162.0415,1.18,12.33,47.84626,-54.09684
2024-03-26 17:59:00+00:00,157.9665,1.2,12.33,47.84626,-54.09684
2024-03-26 18:09:00+00:00,157.1248,1.2,12.33,47.84626,-54.09684
2024-03-26 18:19:00+00:00,157.1582,1.2,12.25,47.84626,-54.09684
2024-03-26 18:29:00+00:00,154.0965,1.2,12.25,47.84626,-54.09684
2024-03-26 18:39:00+00:00,154.1232,1.26,12.25,47.84626,-54.09684
2024-03-26 18:49:00+00:00,157.5332,1.28,12.25,47.84626,-54.09684
2024-03-26 18:59:00+00:00,158.4549,1.3,12.25,47.84626,-54.09684
2024-03-26 19:09:00+00:00,161.8248,1.3,12.25,47.84626,-54.09684
2024-03-26 19:19:00+00:00,168.0648,1.3,12.09,47.84626,-54.09684
2024-03-26 19:29:00+00:00,172.7831,1.3,12.09,47.84626,-54.09684
2024-03-26 19:39:00+00:00,173.7232,1.3,12.09,47.84626,-54.09684
2024-03-26 19:49:00+00:00,174.7698,1.3,12.09,47.84626,-54.09684
2024-03-26 19:59:00+00:00,183.9431,1.3,12.09,47.84626,-54.09684
2024-03-26 20:09:00+00:00,191.9881,1.3,12.09,47.84626,-54.09684
2024-03-26 20:19:00+00:00,197.6098,1.3,12.09,47.84626,-54.09684
2024-03-26 20:29:00+00:00,205.9531,1.28,12.09,47.84626,-54.09684
2024-03-26 20:39:00+00:00,212.5565,1.28,12.09,47.84626,-54.09684
2024-03-26 20:49:00+00:00,218.9564,1.25,12.09,47.84626,-54.09684
2024-03-26 20:59:00+00:00,224.5696,1.2,12.09,47.84626,-54.09684
2024-03-26 21:09:00+00:00,227.523,1.2,12.09,47.84626,-54.09684
2024-03-26 21:19:00+00:00,231.8514,1.23,12.01,47.84626,-54.09684
2024-03-26 21:29:00+00:00,246.4281,1.2,12.01,47.84626,-54.09684
2024-03-26 21:39:00+00:00,256.1915,1.2,12.01,47.84626,-54.09684
2024-03-26 21:49:00+00:00,257.7848,1.26,12.01,47.84626,-54.09684
2024-03-26 21:59:00+00:00,262.7664,1.29,12.01,47.84626,-54.09684
2024-03-26 22:09:00+00:00,274.5614,1.3,12.01,47.84626,-54.09684
2024-03-26 22:19:00+00:00,280.0431,1.3,11.93,47.84626,-54.09684
2024-03-26 22:29:00+00:00,284.1248,1.3,11.93,47.84626,-54.09684
2024-03-26 22:39:00+00:00,292.688,1.3,11.93,47.84626,-54.09684
2024-03-26 22:49:00+00:00,299.798,1.3,11.93,47.84626,-54.09684
2024-03-26 22:59:00+00:00,302.8698,1.3,11.93,47.84626,-54.09684
2024-03-26 23:09:00+00:00,312.238,1.3,11.93,47.84626,-54.09684
2024-03-26 23:19:00+00:00,315.9629,1.3,11.93,47.84626,-54.09684
2024-03-26 23:29:00+00:00,321.818,1.21,11.93,47.84626,-54.09684
2024-03-26 23:39:00+00:00,326.8279,1.2,11.93,47.84626,-54.09684
2024-03-26 23:49:00+00:00,333.288,1.18,11.93,47.84626,-54.09684
2024-03-26 23:59:00+00:00,333.0514,1.19,11.93,47.84626,-54.09684
